TimeCST,TemperatureF,Dew PointF,Humidity,Sea Level PressureIn,VisibilityMPH,Wind Direction,Wind SpeedMPH,Gust SpeedMPH,PrecipitationIn,Events,Conditions,WindDirDegrees,DateUTC
12:00 AM,62.6,62.6,100,30.27,-9999.0,Calm,Calm,-,N/A,,Clear,0,2013-08-17 06:00:00
1:00 AM,62.6,62.6,100,30.27,-9999.0,North,4.6,-,N/A,,Clear,10,2013-08-17 07:00:00
2:00 AM,62.6,62.6,100,30.24,-9999.0,NNE,4.6,-,N/A,,Clear,20,2013-08-17 08:00:00
3:00 AM,62.6,62.6,100,30.24,6.2,Calm,Calm,-,N/A,,Scattered Clouds,0,2013-08-17 09:00:00
4:00 AM,64.4,62.6,94,30.24,5.0,SSW,4.6,-,N/A,,Mostly Cloudy,210,2013-08-17 10:00:00
4:01 AM,-9999,-9999,N/A,-9999,1.2,Calm,Calm,-,N/A,,Scattered Clouds,0,2013-08-17 10:01:00
4:13 AM,-9999,-9999,N/A,-9999,0.6,Calm,Calm,-,N/A,,Scattered Clouds,0,2013-08-17 10:13:00
5:00 AM,62.6,62.6,100,30.24,0.6,Variable,2.3,-,N/A,,Scattered Clouds,0,2013-08-17 11:00:00
5:20 AM,-9999,-9999,N/A,-9999,1.2,Variable,2.3,-,N/A,,Scattered Clouds,0,2013-08-17 11:20:00
5:35 AM,-9999,-9999,N/A,-9999,3.7,Variable,2.3,-,N/A,,Mostly Cloudy,0,2013-08-17 11:35:00
6:00 AM,63,62,96,29.97,25,Calm,Calm,,,,Partly Cloudy,,2013-08-17 12:00:00
6:00 AM,62.6,62.6,100,30.24,6.2,Calm,Calm,-,N/A,,Scattered Clouds,0,2013-08-17 12:00:00
7:00 AM,62.6,62.6,100,30.27,6.2,Calm,Calm,-,N/A,,Scattered Clouds,0,2013-08-17 13:00:00
8:00 AM,64.4,62.6,94,30.27,6.2,Calm,Calm,-,N/A,,Mostly Cloudy,0,2013-08-17 14:00:00
9:00 AM,68.0,60.8,78,30.27,6.2,Calm,Calm,-,N/A,,Scattered Clouds,0,2013-08-17 15:00:00
10:00 AM,71.6,64.4,78,30.27,6.2,North,6.9,-,N/A,,Scattered Clouds,360,2013-08-17 16:00:00
11:00 AM,73.4,60.8,65,30.24,6.2,North,13.8,-,N/A,,Scattered Clouds,360,2013-08-17 17:00:00
12:00 PM,75,64,61,29.90,25,North,11.5,,,,Overcast,0,2013-08-17 18:00:00
12:00 PM,75.2,62.6,65,30.24,6.2,North,11.5,-,N/A,,Scattered Clouds,360,2013-08-17 18:00:00
1:00 PM,73.4,62.6,69,30.24,6.2,North,9.2,-,N/A,Rain-Thunderstorm,Light Thunderstorms and Rain,360,2013-08-17 19:00:00
2:00 PM,69.8,64.4,83,30.21,6.2,Calm,Calm,-,N/A,Thunderstorm,Thunderstorm,0,2013-08-17 20:00:00
3:00 PM,69.8,62.6,78,30.18,6.2,North,4.6,-,N/A,,Partly Cloudy,360,2013-08-17 21:00:00
3:23 PM,-9999,-9999,N/A,-9999,6.2,South,6.9,-,N/A,Thunderstorm,Thunderstorm,180,2013-08-17 21:23:00
3:40 PM,-9999,-9999,N/A,-9999,6.2,South,6.9,-,N/A,Rain-Thunderstorm,Light Thunderstorms and Rain,180,2013-08-17 21:40:00
4:00 PM,66.2,64.4,94,30.18,5.0,Variable,2.3,-,N/A,Rain-Thunderstorm,Thunderstorms and Rain,0,2013-08-17 22:00:00
5:00 PM,66.2,64.4,94,30.21,6.2,Variable,2.3,-,N/A,,Scattered Clouds,0,2013-08-17 23:00:00
5:15 PM,-9999,-9999,N/A,-9999,6.2,Calm,Calm,-,N/A,Rain,Rain,0,2013-08-17 23:15:00
5:42 PM,-9999,-9999,N/A,-9999,6.2,South,5.8,-,N/A,Rain,Rain,180,2013-08-17 23:42:00
6:00 PM,67,65,90,29.95,5,South,6.9,,,Rain,Rain,180,2013-08-18 00:00:00
6:00 PM,66.2,64.4,94,30.21,5.0,South,6.9,-,N/A,Rain,Rain,180,2013-08-18 00:00:00
6:18 PM,-9999,-9999,N/A,-9999,6.2,South,6.9,-,N/A,,Light Drizzle,180,2013-08-18 00:18:00
6:48 PM,-9999,-9999,N/A,-9999,3.1,South,6.9,-,N/A,,Mostly Cloudy,180,2013-08-18 00:48:00
7:00 PM,66.2,64.4,94,30.24,2.5,South,6.9,-,N/A,,Mostly Cloudy,190,2013-08-18 01:00:00
8:00 PM,66.2,64.4,94,30.27,3.7,South,4.6,-,N/A,,Mostly Cloudy,180,2013-08-18 02:00:00
9:00 PM,66.2,64.4,94,30.27,3.7,South,4.6,-,N/A,Rain,Rain,190,2013-08-18 03:00:00
9:15 PM,-9999,-9999,N/A,-9999,1.9,South,4.6,-,N/A,Rain,Heavy Rain,180,2013-08-18 03:15:00
9:40 PM,-9999,-9999,N/A,-9999,5.0,WSW,5.8,-,N/A,Rain,Light Rain,240,2013-08-18 03:40:00
10:00 PM,64.4,62.6,94,30.30,6.2,West,3.5,-,N/A,,Light Drizzle,260,2013-08-18 04:00:00
11:00 PM,64.4,60.8,88,30.30,6.2,Calm,Calm,-,N/A,,Mostly Cloudy,0,2013-08-18 05:00:00